Weather History for KSVH - February, 2013

Change the Weather History Date:

Sunday, February 24, 2013

  Actual Average (KHKY) Record (KHKY)
Temperature  
Mean Temperature 48 °F -  
Max Temperature 61 °F 55 °F 83 °F (1982)
Min Temperature 33 °F 33 °F 11 °F (1967)
Degree Days  
Heating Degree Days 16    
Moisture  
Dew Point 31 °F    
Average Humidity 59    
Maximum Humidity 99    
Minimum Humidity 24    
Precipitation  
Precipitation 0.00 in - - ()
Sea Level Pressure  
Sea Level Pressure 29.92 in    
Wind  
Wind Speed 5 mph (West)    
Max Wind Speed 15 mph    
Max Gust Speed 21 mph    
Visibility 7 miles    
Events Fog    
Averages and records for this station are not official NWS values.
T = Trace of Precipitation, MM = Missing Value Source: NWS Daily Summary

Daily Weather History Graph

Daily Weather History Graph

Search for Another Location

Airport or City:

Trip Planner

Search our weather history database for the weather conditions in past years. The results will help you decide how hot, cold, wet, or windy it might be!

Date:

Astronomy

Feb. 24, 2013 Rise Set
Actual Time 6:59 AM EST 6:14 PM EST
Civil Twilight 6:34 AM EST 6:40 PM EST
Nautical Twilight 6:04 AM EST 7:10 PM EST
Astronomical Twilight 5:34 AM EST 7:39 PM EST
Moon 5:24 PM EST (2/24) 5:55 AM EST (2/24)
Length of Visible Light 12h 06m
Length of Day
11h 14m
Waxing Gibbous, 99% of the Moon is Illuminated
Feb 24
Waxing Gibbous
Feb 25
Full
Mar 4
Last Quarter
Mar 11
New
Mar 19
First Quarter

Hourly Weather History & Observations

Time (EST) Temp. Windchill Dew Point Humidity Pressure Visibility Wind Dir Wind Speed Gust Speed Precip Events Conditions
12:15 AM 42.4 °F 40.7 °F 41.0 °F 95% 29.84 in 3.0 mi SW 3.5 mph - N/A   Overcast
12:35 AM 42.6 °F 40.9 °F 41.0 °F 94% 29.84 in 3.0 mi SW 3.5 mph - N/A   Overcast
12:55 AM 42.4 °F - 41.0 °F 95% 29.84 in 3.0 mi Calm Calm - N/A   Overcast
1:15 AM 42.1 °F 39.2 °F 41.0 °F 96% 29.85 in 2.5 mi SSW 4.6 mph - N/A   Overcast
1:35 AM 42.6 °F 39.9 °F 41.2 °F 95% 29.85 in 3.0 mi SSW 4.6 mph - N/A   Overcast
1:55 AM 43.0 °F 39.5 °F 41.7 °F 95% 29.86 in 3.0 mi West 5.8 mph - N/A   Overcast
2:15 AM 43.0 °F 40.3 °F 41.9 °F 96% 29.84 in 2.5 mi SW 4.6 mph - N/A   Overcast
2:35 AM 42.8 °F 40.1 °F 41.9 °F 97% 29.84 in 0.8 mi SSW 4.6 mph - N/A   Overcast
2:55 AM 42.8 °F 41.1 °F 41.9 °F 97% 29.83 in 0.5 mi SW 3.5 mph - N/A Fog Fog
3:15 AM 42.8 °F 39.3 °F 41.5 °F 95% 29.84 in 0.5 mi WSW 5.8 mph - N/A Fog Fog
3:35 AM 42.3 °F 39.4 °F 41.4 °F 97% 29.83 in 0.2 mi West 4.6 mph - N/A Fog Fog
3:55 AM 42.3 °F 40.5 °F 41.4 °F 97% 29.83 in 0.2 mi WSW 3.5 mph - N/A Fog Fog
4:15 AM 42.1 °F 40.2 °F 41.2 °F 97% 29.84 in 0.2 mi WSW 3.5 mph - N/A Fog Fog
4:35 AM 41.9 °F 38.2 °F 41.0 °F 97% 29.84 in 0.2 mi WSW 5.8 mph - N/A Fog Fog
4:55 AM 41.5 °F 38.6 °F 41.0 °F 98% 29.85 in 0.2 mi WSW 4.6 mph - N/A Fog Fog
5:15 AM 41.5 °F 37.8 °F 41.0 °F 98% 29.85 in 0.2 mi WSW 5.8 mph - N/A Fog Fog
5:35 AM 41.0 °F 37.1 °F 40.3 °F 97% 29.86 in 0.5 mi WSW 5.8 mph - N/A Fog Fog
5:55 AM 40.8 °F - 40.1 °F 97% 29.87 in 0.2 mi Calm Calm - N/A Fog Fog
6:15 AM 40.1 °F - 39.2 °F 97% 29.88 in 0.2 mi Calm Calm - N/A Fog Fog
6:35 AM 38.8 °F - 38.1 °F 97% 29.88 in 0.2 mi Calm Calm - N/A Fog Fog
6:55 AM 37.8 °F - 37.4 °F 99% 29.89 in 0.2 mi Calm Calm - N/A Fog Fog
7:15 AM 37.0 °F - 36.5 °F 98% 29.90 in 0.2 mi Calm Calm - N/A Fog Fog
7:35 AM 36.1 °F 33.5 °F 35.6 °F 98% 29.92 in 0.2 mi West 3.5 mph - N/A Fog Fog
8:15 AM 37.6 °F 35.1 °F 37.0 °F 98% 29.93 in 0.5 mi SSW 3.5 mph - N/A Fog Fog
8:35 AM 39.0 °F 34.8 °F 38.5 °F 98% 29.94 in 7.0 mi WSW 5.8 mph - N/A   Scattered Clouds
8:55 AM 43.3 °F 38.1 °F 39.6 °F 87% 29.95 in 10.0 mi West 9.2 mph - N/A   Clear
9:15 AM 45.9 °F 41.2 °F 38.3 °F 75% 29.95 in 10.0 mi West 9.2 mph - N/A   Clear
9:35 AM 47.7 °F - 37.2 °F 67% 29.95 in 10.0 mi WNW 5.8 mph - N/A   Clear
9:55 AM 50.5 °F - 36.1 °F 58% 29.96 in 10.0 mi WNW 12.7 mph 16.1 mph N/A   Clear
10:15 AM 51.8 °F - 34.0 °F 51% 29.95 in 10.0 mi West 10.4 mph 17.3 mph N/A   Clear
10:35 AM 53.1 °F - 34.0 °F 48% 29.95 in 10.0 mi West 15.0 mph 19.6 mph N/A   Clear
10:55 AM 54.5 °F - 32.2 °F 43% 29.95 in 10.0 mi WNW 10.4 mph - N/A   Clear
11:15 AM 55.0 °F - 30.7 °F 40% 29.96 in 10.0 mi West 11.5 mph 17.3 mph N/A   Clear
11:35 AM 55.8 °F - 28.6 °F 35% 29.96 in 10.0 mi NW 9.2 mph 18.4 mph N/A   Clear
11:55 AM 56.7 °F - 30.4 °F 37% 29.95 in 10.0 mi West 12.7 mph 20.7 mph N/A   Unknown
12:15 PM 56.5 °F - 28.0 °F 34% 29.95 in 10.0 mi West 11.5 mph 17.3 mph N/A   Unknown
12:35 PM 56.8 °F - 27.1 °F 32% 29.94 in 10.0 mi WNW 6.9 mph 18.4 mph N/A   Unknown
12:55 PM 58.6 °F - 28.8 °F 32% 29.94 in 10.0 mi West 12.7 mph 16.1 mph N/A   Unknown
1:15 PM 57.7 °F - 27.1 °F 31% 29.92 in 10.0 mi WSW 4.6 mph - N/A   Unknown
1:35 PM 59.0 °F - 26.6 °F 29% 29.92 in 10.0 mi WSW 8.1 mph 20.7 mph N/A   Unknown
1:55 PM 59.4 °F - 27.7 °F 30% 29.92 in 10.0 mi WSW 8.1 mph - N/A   Unknown
2:15 PM 60.1 °F - 28.2 °F 30% 29.92 in 10.0 mi SW 5.8 mph 17.3 mph N/A   Unknown
2:35 PM 59.9 °F - 25.9 °F 27% 29.91 in 10.0 mi Calm Calm - N/A   Unknown
2:55 PM 60.6 °F - 27.3 °F 28% 29.91 in 10.0 mi Calm Calm - N/A   Unknown
3:15 PM 60.6 °F - 25.0 °F 26% 29.91 in 10.0 mi WSW 4.6 mph - N/A   Unknown
3:35 PM 61.0 °F - 26.6 °F 27% 29.91 in 10.0 mi NW 9.2 mph - N/A   Unknown
3:55 PM 60.8 °F - 26.1 °F 27% 29.91 in 10.0 mi West 6.9 mph - N/A   Unknown
4:15 PM 61.7 °F - 28.0 °F 28% 29.91 in 10.0 mi Calm Calm - N/A   Unknown
4:35 PM 60.4 °F - 23.2 °F 24% 29.92 in 10.0 mi NNW 6.9 mph - N/A   Unknown
4:55 PM 60.1 °F - 24.1 °F 25% 29.92 in 10.0 mi WNW 5.8 mph - N/A   Unknown
5:15 PM 59.5 °F - 24.3 °F 26% 29.92 in 10.0 mi NW 8.1 mph - N/A   Unknown
5:35 PM 58.5 °F - 22.3 °F 25% 29.93 in 10.0 mi NNW 4.6 mph - N/A   Clear
5:55 PM 57.7 °F - 21.6 °F 25% 29.93 in 10.0 mi NNW 3.5 mph - N/A   Unknown
6:15 PM 56.5 °F - 21.4 °F 26% 29.94 in 10.0 mi NNW 4.6 mph - N/A   Unknown
6:35 PM 55.6 °F - 21.0 °F 26% 29.95 in 10.0 mi NW 4.6 mph - N/A   Unknown
6:55 PM 53.6 °F - 21.9 °F 29% 29.96 in 10.0 mi WNW 6.9 mph - N/A   Clear
7:15 PM 53.2 °F - 20.8 °F 28% 29.98 in 10.0 mi NNW 5.8 mph - N/A   Clear
7:35 PM 50.7 °F - 21.7 °F 32% 29.99 in 10.0 mi WNW 6.9 mph - N/A   Clear
7:55 PM 50.9 °F - 21.2 °F 31% 29.99 in 10.0 mi WNW 4.6 mph - N/A   Clear
8:15 PM 50.0 °F - 22.3 °F 34% 30.01 in 10.0 mi WNW 3.5 mph - N/A   Clear
8:35 PM 49.1 °F - 22.1 °F 35% 30.01 in 10.0 mi WNW 4.6 mph - N/A   Clear
8:55 PM 49.1 °F - 22.1 °F 35% 30.01 in 10.0 mi WNW 3.5 mph - N/A   Clear
9:15 PM 47.7 °F - 22.3 °F 37% 30.01 in 10.0 mi NW 4.6 mph - N/A   Clear
9:35 PM 46.9 °F - 22.1 °F 38% 30.01 in 10.0 mi WNW 4.6 mph - N/A   Clear
9:55 PM 40.8 °F - 24.3 °F 52% 30.02 in 10.0 mi Calm Calm - N/A   Clear
10:15 PM 43.9 °F - 23.5 °F 45% 30.02 in 7.0 mi Calm Calm - N/A   Clear
10:35 PM 43.5 °F 41.9 °F 23.7 °F 46% 30.02 in 10.0 mi NNW 3.5 mph - N/A   Clear
10:55 PM 41.4 °F - 25.0 °F 52% 30.03 in 10.0 mi Calm Calm - N/A   Clear
11:15 PM 40.8 °F - 24.8 °F 53% 30.02 in 10.0 mi Calm Calm - N/A   Clear
11:35 PM 37.6 °F - 26.4 °F 64% 30.02 in 10.0 mi Calm Calm - N/A   Clear
11:55 PM 33.8 °F 30.8 °F 27.7 °F 78% 30.02 in 10.0 mi ENE 3.5 mph - N/A   Clear